TimeNZDT,TemperatureF,Dew PointF,Humidity,Sea Level PressureIn,VisibilityMPH,Wind Direction,Wind SpeedMPH,Gust SpeedMPH,PrecipitationIn,Events,Conditions,WindDirDegrees,DateUTC
12:00 AM,48.2,42.8,82,29.74,-9999.0,ENE,8.1,-,N/A,,Clear,70,2012-10-07 11:00:00
1:00 AM,46.4,42.8,87,29.71,-9999.0,East,6.9,-,N/A,,Clear,80,2012-10-07 12:00:00
2:00 AM,44.6,41.0,87,29.71,-9999.0,NE,2.3,-,N/A,,Clear,40,2012-10-07 13:00:00
3:00 AM,41.0,39.2,93,29.68,-9999.0,NE,1.2,-,N/A,,Clear,50,2012-10-07 14:00:00
4:00 AM,39.2,39.2,100,29.68,-9999.0,ESE,2.3,-,N/A,,Clear,120,2012-10-07 15:00:00
5:00 AM,42.8,41.0,93,29.68,-9999.0,WNW,3.5,-,N/A,,Clear,290,2012-10-07 16:00:00
6:00 AM,44.6,42.8,93,29.68,-9999.0,North,2.3,-,N/A,,Clear,10,2012-10-07 17:00:00
7:00 AM,44.6,42.8,93,29.68,6.2,SW,1.2,-,N/A,,Scattered Clouds,220,2012-10-07 18:00:00
8:00 AM,46.4,42.8,87,29.68,6.2,SSW,4.6,-,N/A,,Overcast,210,2012-10-07 19:00:00
9:00 AM,46.4,42.8,87,29.71,6.2,SSW,3.5,-,N/A,,Drizzle,210,2012-10-07 20:00:00
10:00 AM,46.4,44.6,93,29.68,5.0,SSW,6.9,-,N/A,,Drizzle,210,2012-10-07 21:00:00
10:40 AM,46.4,44.6,93,29.71,5.0,SW,5.8,-,N/A,,Drizzle,220,2012-10-07 21:40:00
11:00 AM,46.4,44.6,93,29.71,5.0,SSW,4.6,-,N/A,,Drizzle,210,2012-10-07 22:00:00
12:00 PM,48.2,44.6,87,29.68,5.0,SW,4.6,-,N/A,Rain,Light Rain,220,2012-10-07 23:00:00
1:00 PM,50.0,46.4,87,29.65,6.2,SW,6.9,-,N/A,Rain,Rain Showers,220,2012-10-08 00:00:00
2:00 PM,50.0,44.6,82,29.65,6.2,SW,5.8,-,N/A,Rain,Rain Showers,230,2012-10-08 01:00:00
3:00 PM,50.0,44.6,82,29.62,6.2,West,5.8,-,N/A,Rain,Rain Showers,270,2012-10-08 02:00:00
4:00 PM,48.2,46.4,93,29.59,6.2,WSW,8.1,-,N/A,,Mostly Cloudy,240,2012-10-08 03:00:00
5:00 PM,48.2,44.6,87,29.59,6.2,SW,10.4,-,N/A,Rain,Rain,230,2012-10-08 04:00:00
6:00 PM,46.4,44.6,93,29.56,6.2,WSW,8.1,-,N/A,Rain,Rain,250,2012-10-08 05:00:00
7:00 PM,42.8,42.8,100,29.56,3.1,West,9.2,-,N/A,Rain,Rain,260,2012-10-08 06:00:00
8:00 PM,42.8,41.0,93,29.56,2.2,WSW,10.4,-,N/A,Rain,Rain,250,2012-10-08 07:00:00
9:00 PM,42.8,42.8,100,29.59,3.1,West,10.4,-,N/A,Rain,Rain,260,2012-10-08 08:00:00
10:00 PM,42.8,42.8,100,29.59,3.1,West,11.5,-,N/A,Rain,Rain,270,2012-10-08 09:00:00
11:00 PM,44.6,42.8,93,29.56,3.1,West,12.7,-,N/A,Rain,Rain,270,2012-10-08 10:00:00